Theta_e
328 321 319 315 297 295 292 298 306 306 307 310 312 316 319 321 325 317 336 360 361 360 362 364 367 367 366 365 364 363 362 362 363 363 362 362 362 363 363 363 364 363 364 361 360 359 357 355 353
324 320 314 305 292 287 292 303 301 306 310 312 313 321 320 319 330 331 335 359 361 359 359 363 367 367 366 365 363 362 362 362 362 362 362 362 362 363 363 363 363 364 362 361 360 358 355 352 350
323 320 305 296 292 289 292 301 302 307 310 310 310 315 321 322 329 331 338 360 359 357 360 364 366 366 366 364 363 362 362 362 362 363 362 363 362 362 362 362 362 363 360 359 357 355 356 354 351
313 308 304 294 293 298 298 303 305 305 307 309 309 316 320 328 330 334 342 363 359 358 361 365 366 365 366 364 363 362 362 362 362 362 363 362 362 362 361 361 362 362 360 358 356 355 354 352 349
309 302 294 291 293 298 303 305 304 302 304 305 307 311 315 325 328 332 337 350 360 359 360 362 365 366 365 364 362 362 362 362 362 362 362 361 361 361 361 361 362 361 360 357 355 353 351 349 349
300 299 290 288 294 300 302 305 305 304 306 307 306 307 311 317 319 319 331 357 362 359 359 361 365 365 364 364 362 361 361 361 361 361 361 361 360 360 361 361 361 361 360 358 354 351 349 348 348
297 295 292 295 297 300 304 307 304 303 303 305 307 304 307 312 314 316 324 360 360 359 357 359 361 363 364 363 362 361 361 361 361 360 360 360 360 360 361 361 361 360 359 357 354 350 349 349 348
300 296 293 294 296 296 303 303 307 306 305 310 311 304 302 309 314 317 317 349 359 358 356 354 358 359 359 360 362 362 361 360 360 360 360 359 360 360 361 359 359 360 359 356 352 351 350 349 349
301 291 289 293 294 296 301 299 305 308 306 308 308 307 309 313 313 313 312 321 354 359 355 352 353 354 355 357 360 361 361 361 360 360 359 356 354 356 358 358 359 359 358 355 353 351 351 350 351
295 289 291 298 297 296 300 300 301 303 302 304 306 309 312 312 312 310 308 307 343 348 354 352 348 349 348 355 357 355 357 354 353 355 355 353 348 349 354 354 358 358 357 355 354 352 352 351 343
297 291 298 301 301 301 300 299 303 301 298 302 302 305 308 309 309 310 308 309 334 350 350 354 349 348 344 349 353 352 352 352 353 353 352 349 347 347 348 347 352 349 354 347 349 347 346 343 339
293 300 300 301 302 301 299 302 299 300 300 305 305 306 306 306 305 308 307 310 309 343 349 351 355 353 351 350 348 348 350 349 349 350 351 347 341 342 344 346 346 345 344 343 339 339 338 338 339
295 298 301 301 300 299 301 299 299 299 304 306 306 307 305 304 305 307 309 309 312 315 348 353 354 354 354 348 343 343 344 344 345 345 348 344 341 340 344 345 345 344 341 340 336 337 339 340 339
299 299 299 300 300 299 299 299 299 302 305 305 306 305 305 304 304 304 307 308 310 314 333 349 353 354 352 349 344 343 344 342 342 343 346 342 341 341 344 344 344 341 339 340 339 336 339 337 340
302 296 298 300 300 299 302 296 298 303 305 304 305 305 306 304 306 305 305 308 310 316 316 346 349 352 352 352 352 349 348 344 340 342 346 343 342 345 342 341 341 341 340 339 343 343 342 340 342
297 295 290 298 300 301 300 292 300 304 303 303 305 305 306 306 306 305 307 308 309 315 318 336 353 351 351 349 353 352 354 348 344 345 347 344 345 348 342 340 340 338 338 338 339 340 339 341 341
293 287 291 294 299 299 295 293 300 303 302 301 303 304 306 306 307 307 310 309 311 312 317 325 331 349 349 350 349 350 353 352 349 348 348 345 348 350 343 341 340 339 339 338 339 340 341 341 341
289 289 290 291 295 297 295 295 299 300 301 301 303 302 304 305 307 309 312 311 310 312 312 328 328 330 342 350 346 348 348 346 350 350 349 346 348 346 343 340 340 338 339 341 342 342 344 341 338
293 291 290 294 298 294 294 295 297 300 300 301 303 301 301 303 308 310 312 313 312 313 314 327 329 330 329 331 345 343 342 343 340 343 351 347 348 345 344 339 340 336 340 340 343 342 340 333 333
293 291 290 295 297 296 294 294 297 299 300 302 302 303 302 303 305 309 310 311 312 314 315 324 326 327 332 338 344 345 345 341 338 339 349 349 347 345 343 340 339 342 340 343 343 343 337 332 329
293 290 291 291 296 297 294 291 294 299 301 302 304 306 304 303 304 307 309 310 312 314 323 324 324 325 331 332 339 344 343 343 342 344 348 347 346 345 343 340 339 342 343 342 341 340 337 326 326
289 296 296 295 292 286 293 284 292 295 297 302 303 302 303 304 306 307 310 309 312 313 320 323 323 322 325 332 331 334 338 337 342 342 343 347 347 345 342 340 342 344 343 342 341 341 337 331 322
292 298 295 295 291 289 290 286 291 297 297 301 303 307 308 306 305 305 306 308 313 315 315 323 325 325 326 330 329 328 335 340 343 340 341 342 346 343 344 339 343 342 342 338 333 327 323 323 316
300 295 294 291 288 281 288 288 288 292 296 299 305 306 308 305 305 306 306 308 311 313 313 318 325 324 330 334 335 333 337 340 340 335 340 341 345 342 343 346 342 339 334 329 326 323 320 318 315
296 288 278 278 278 279 293 288 290 298 302 302 303 305 307 308 305 305 306 306 308 309 311 312 323 322 330 332 336 336 336 339 340 340 334 340 340 339 342 340 336 332 328 326 322 319 316 314 313
290 287 279 277 279 283 292 284 289 301 304 306 307 306 307 305 305 308 309 310 311 313 315 319 318 320 328 332 336 336 335 339 342 340 334 337 340 339 342 335 331 328 324 320 317 314 315 316 315
291 286 291 286 287 281 286 291 298 301 303 304 304 306 305 306 307 308 309 308 311 311 313 315 317 317 318 320 328 334 336 336 337 338 336 336 338 339 332 330 327 324 320 316 313 315 315 315 312
294 295 286 286 280 277 283 285 287 295 298 302 303 303 305 307 308 307 307 308 310 310 312 312 315 317 317 318 319 331 334 336 337 335 332 334 332 331 327 323 321 318 317 315 316 317 315 312 311
290 288 289 289 286 282 278 282 296 296 301 301 301 303 305 306 307 307 308 308 310 310 311 312 316 315 318 318 318 321 332 334 335 333 332 331 328 326 322 320 317 315 315 316 315 313 313 311 308
294 290 291 285 283 287 285 286 301 299 302 303 302 304 304 304 305 307 308 306 307 308 310 311 314 315 317 319 319 320 328 332 328 330 332 334 331 326 321 318 316 318 318 316 313 312 309 306 304
Wind_Speed
9 8 3 3 5 4 5 11 11 18 1 6 5 17 16 10 7 7 4 16 17 13 9 12 14 17 17 16 19 18 15 13 15 15 15 14 12 12 11 12 12 12 11 11 10 9 7 7 8
5 7 1 2 4 0 8 17 9 4 6 8 9 15 17 11 12 7 5 17 16 14 8 9 15 14 17 17 15 16 16 15 15 14 13 13 13 11 11 10 10 10 11 10 9 8 7 7 7
6 6 2 5 4 6 7 10 4 3 8 7 6 9 7 6 8 4 3 20 17 15 11 11 14 14 15 15 17 17 16 14 16 16 14 13 12 11 11 10 10 9 9 8 8 7 6 6 5
4 3 4 2 9 12 11 18 6 4 6 5 3 8 6 6 4 6 3 19 16 15 13 15 15 14 14 13 16 16 15 15 15 16 15 15 13 12 9 10 10 8 8 8 7 6 5 4 3
2 2 1 3 8 11 14 13 5 2 3 4 3 5 8 5 7 5 3 11 16 13 12 15 18 15 14 14 14 16 16 15 15 14 14 14 13 12 10 10 10 8 8 7 6 5 4 3 2
3 2 3 3 8 11 9 10 5 4 6 10 6 8 5 6 8 8 7 11 16 12 9 10 18 18 15 13 13 15 16 15 15 14 14 13 12 12 11 8 9 8 8 6 5 4 4 4 3
3 1 5 8 12 15 12 9 5 5 4 7 5 8 3 9 5 7 7 16 16 14 11 8 7 14 17 14 13 13 15 15 15 15 14 13 12 11 11 9 9 9 9 7 6 5 4 4 6
4 2 6 6 8 11 10 12 8 7 4 4 6 5 5 4 5 8 8 8 14 12 12 8 10 6 8 10 13 13 14 14 15 14 14 14 13 13 12 11 10 10 9 8 7 7 6 7 9
2 4 4 8 5 8 9 12 11 13 8 5 4 4 4 3 6 6 4 4 12 9 11 11 9 9 7 8 10 11 13 13 13 14 14 11 5 7 10 10 11 10 10 9 8 8 9 10 10
4 3 7 7 6 6 9 9 10 9 10 8 9 8 10 7 1 7 2 4 2 6 10 8 10 10 9 9 9 7 8 6 8 7 9 6 6 6 9 10 13 12 11 10 10 10 11 10 4
6 5 5 12 8 6 8 6 8 9 9 9 8 12 11 8 7 6 4 6 7 7 5 8 11 11 11 8 7 5 4 5 5 7 8 7 6 7 6 3 6 5 10 4 6 6 5 5 4
2 6 5 11 11 6 6 11 4 6 8 9 10 9 8 10 7 3 4 8 3 6 6 4 8 9 6 8 8 9 8 7 6 8 10 7 5 7 6 6 6 6 4 6 5 4 5 7 8
7 7 8 8 10 9 8 9 11 7 10 10 10 10 12 9 8 8 6 7 8 5 8 8 5 5 6 10 7 8 9 8 8 8 9 7 6 7 8 7 6 7 5 5 5 5 6 7 8
6 8 9 8 13 12 13 10 7 13 8 11 11 11 10 10 9 7 8 8 6 7 9 10 9 7 5 6 10 9 9 10 9 9 10 10 8 8 8 8 8 7 5 6 7 6 5 5 3
12 11 10 16 14 15 16 10 14 12 11 13 15 13 11 10 9 11 8 8 6 5 6 8 9 7 6 7 6 7 5 9 9 10 12 13 9 9 8 5 5 8 5 7 5 3 3 2 1
10 6 7 12 7 8 8 11 11 12 10 13 10 7 7 8 9 8 9 7 9 6 8 7 7 8 7 7 5 7 5 6 10 10 11 13 12 9 8 6 5 6 4 4 4 3 2 3 3
6 6 14 12 14 18 7 13 8 9 12 11 10 9 9 9 9 10 10 9 8 8 7 8 8 9 9 6 5 7 6 4 6 8 11 12 13 9 9 6 6 6 4 4 4 4 3 2 3
11 10 9 15 10 12 18 21 13 10 8 9 14 11 9 10 13 11 12 11 10 9 8 9 8 9 7 5 4 3 7 2 5 6 10 15 11 11 8 6 6 6 4 4 3 4 3 3 3
8 12 16 16 15 11 15 18 20 15 7 14 17 11 11 10 14 14 11 11 10 8 8 9 8 8 5 2 2 2 4 5 1 7 18 16 13 14 10 6 5 5 6 6 5 4 6 4 2
9 10 14 15 14 15 18 22 20 13 13 17 13 17 16 8 8 9 10 9 10 10 9 8 9 8 5 3 3 3 3 5 11 13 17 16 14 13 10 8 5 6 4 5 4 5 3 3 3
9 8 13 15 19 18 17 17 17 14 17 16 17 13 9 11 10 10 10 10 9 10 10 10 10 9 5 6 3 2 3 2 6 13 9 7 10 8 10 6 5 6 5 5 5 5 7 4 2
7 10 14 18 14 13 7 20 17 15 18 12 19 7 11 6 6 8 7 7 9 10 9 11 10 9 8 9 4 6 5 7 6 7 5 0 4 5 7 8 5 6 4 5 4 4 5 6 5
7 9 15 19 17 14 11 7 13 14 9 16 14 12 18 6 9 9 9 2 8 8 9 10 10 9 8 7 8 6 5 5 5 3 4 7 8 1 8 4 5 6 5 6 9 8 7 5 5
7 10 17 9 7 7 7 1 3 3 4 10 7 7 7 7 9 8 6 7 1 6 8 8 10 9 8 8 9 10 9 6 5 4 4 7 9 10 12 8 6 8 10 9 8 8 9 8 7
12 8 6 6 5 8 5 4 9 15 12 11 13 10 8 10 9 5 7 6 8 3 4 6 8 10 10 10 8 9 8 7 7 6 5 7 6 8 14 9 7 8 11 10 9 10 9 7 7
4 1 4 6 10 17 9 8 2 5 12 15 21 16 11 6 7 10 10 8 9 9 9 12 10 6 4 5 7 7 8 5 5 4 4 6 8 5 8 8 8 9 13 11 10 8 7 7 7
7 2 9 7 6 5 6 8 3 12 11 8 14 20 15 20 12 9 9 8 8 9 8 7 7 6 6 4 5 6 6 7 5 4 4 4 5 4 10 11 9 10 9 11 12 9 9 9 8
9 7 8 2 5 6 5 6 3 8 13 14 16 15 16 16 15 12 8 8 6 7 7 9 8 3 1 5 2 4 7 5 4 1 4 9 10 14 16 15 12 14 6 7 9 9 9 11 6
12 11 7 3 6 4 4 5 6 7 6 6 0 5 9 10 11 12 14 8 8 7 8 9 9 8 7 5 4 4 6 4 4 1 5 11 15 9 19 14 13 15 11 5 8 10 11 11 9
14 4 5 3 5 3 4 6 5 5 10 8 11 9 4 3 7 8 5 7 8 8 9 8 9 10 8 5 6 6 7 3 4 6 7 10 6 10 18 19 14 12 10 10 10 12 11 11 11
Wind_Direction
322 303 250 333 45 81 268 263 243 298 66 318 70 94 92 56 61 117 255 122 121 131 141 126 126 129 129 137 134 129 129 126 122 121 118 117 113 110 112 115 119 120 120 121 121 117 107 88 78
318 302 179 269 109 79 266 254 309 4 21 20 30 93 73 77 94 90 57 137 127 136 127 125 126 132 133 139 134 130 134 134 128 124 124 125 123 121 119 115 116 120 125 126 124 118 103 89 79
270 235 60 146 199 198 245 267 339 359 59 23 26 80 73 105 66 99 70 134 134 137 133 132 127 132 133 145 137 136 139 139 134 133 134 131 130 131 132 132 124 125 126 122 115 105 93 86 82
322 358 333 84 269 268 251 277 279 359 7 60 64 77 69 47 90 134 153 144 135 141 138 136 131 133 138 152 139 138 141 142 142 142 143 142 140 139 142 139 130 129 127 123 114 108 106 102 100
253 339 277 258 260 268 278 277 256 150 352 8 97 89 103 70 57 52 44 115 137 140 141 144 137 137 141 151 147 143 146 147 147 147 147 148 146 147 149 147 139 136 127 125 129 129 127 142 163
346 130 25 256 270 276 284 291 161 39 21 351 48 108 80 67 41 340 35 94 129 120 121 140 141 139 142 150 152 150 149 149 148 149 151 148 150 151 149 154 145 141 134 142 152 165 179 188 220
170 114 243 270 282 300 311 320 56 36 21 26 348 94 109 75 25 357 16 106 118 120 124 125 134 143 145 146 153 155 152 152 151 152 151 150 156 156 154 164 163 154 151 160 186 194 209 228 249
174 125 299 290 282 283 10 360 360 20 305 60 17 30 173 187 118 38 353 125 129 135 140 150 137 142 144 146 155 158 158 155 152 154 155 157 163 161 165 169 176 160 168 177 202 215 222 241 251
97 36 295 265 312 307 2 10 350 333 20 27 19 335 231 158 103 94 340 29 126 147 145 151 152 150 153 144 158 158 160 155 156 158 160 158 161 167 174 175 173 179 181 191 208 227 235 243 256
128 141 245 266 331 339 331 18 324 356 344 337 345 333 322 4 290 134 349 15 89 128 146 160 159 160 164 166 149 149 163 171 182 168 165 167 171 173 185 194 185 187 192 202 215 228 239 252 250
261 206 306 310 315 341 338 352 346 350 328 313 321 320 330 360 17 35 23 313 174 173 162 156 164 171 178 154 154 158 168 178 180 178 176 185 183 186 188 175 186 189 202 208 217 233 232 237 229
31 316 302 283 301 346 322 301 299 281 272 290 306 304 309 317 315 316 318 303 17 186 159 195 156 165 171 147 169 171 172 179 186 189 183 193 198 188 172 175 190 190 200 213 216 212 218 230 237
348 307 300 320 328 310 299 278 279 259 267 265 273 279 290 292 294 286 250 277 291 147 158 156 169 201 151 162 179 180 179 183 188 185 191 192 201 190 177 184 192 203 196 196 218 213 211 227 235
292 303 309 293 269 264 255 254 261 273 265 277 263 257 255 253 276 283 274 238 266 232 159 168 170 201 155 187 183 192 186 188 182 188 193 197 205 199 188 182 194 201 201 206 206 215 195 206 194
297 289 281 269 256 249 242 254 244 259 260 257 264 245 238 236 242 253 238 237 227 225 232 172 168 183 199 195 208 204 219 194 187 190 191 196 201 196 196 193 180 201 192 188 176 154 157 179 115
273 262 279 281 301 313 200 248 242 253 260 257 246 283 210 243 245 241 242 241 252 193 204 188 180 177 187 196 230 229 217 200 201 192 191 198 201 184 187 185 202 199 187 164 148 170 185 237 224
279 296 312 318 337 335 319 282 271 289 296 282 259 236 223 225 232 243 241 234 230 240 192 197 189 182 196 187 210 238 245 236 225 198 191 195 199 182 185 178 191 186 183 178 176 211 156 190 135
320 321 309 312 319 302 293 298 292 281 282 298 297 258 228 218 223 218 224 222 215 207 210 192 193 173 187 187 185 242 261 270 307 321 206 187 192 184 185 184 183 174 175 187 187 183 136 122 111
329 323 309 303 304 305 296 282 281 275 281 280 276 266 254 234 225 221 226 212 206 207 194 175 174 204 175 156 161 206 236 232 142 280 285 197 187 187 181 180 183 179 173 189 201 159 124 66 59
312 305 306 306 327 326 314 304 298 283 268 263 260 270 254 240 245 227 216 208 189 188 186 170 180 186 194 137 161 181 192 220 199 218 232 219 194 180 173 172 181 175 161 164 164 142 114 93 48
308 311 328 316 324 309 293 292 300 306 301 277 262 260 250 234 237 231 219 199 180 173 166 167 177 189 193 189 150 201 277 231 225 223 253 232 194 190 170 172 169 174 158 177 165 128 111 123 47
333 331 315 302 302 292 320 294 287 284 288 310 264 330 296 241 237 198 191 204 181 185 162 164 175 187 206 194 172 180 206 249 240 234 196 252 354 299 196 169 164 184 168 147 124 115 115 121 136
300 314 291 290 286 305 316 259 301 303 306 338 337 64 339 359 74 55 24 286 188 163 168 174 183 196 208 187 187 192 210 230 267 289 239 180 189 27 301 147 188 176 125 117 115 106 98 101 112
305 322 321 304 313 297 281 124 304 312 291 311 323 18 326 318 78 59 23 20 11 178 165 168 179 204 198 193 199 200 209 215 242 236 207 200 186 173 202 232 148 139 120 114 106 102 93 99 93
345 333 321 334 349 261 346 319 253 316 284 303 320 293 138 255 76 32 7 349 21 60 192 201 182 202 203 197 199 199 210 219 228 233 192 188 194 189 201 138 155 134 119 108 103 99 100 99 98
289 86 188 281 300 291 300 258 320 49 44 26 349 307 344 32 64 54 42 48 46 36 46 59 56 355 313 199 205 213 219 222 212 203 183 197 180 204 130 105 140 119 109 108 101 95 93 92 87
298 245 247 285 300 299 236 262 330 21 30 31 346 359 14 15 357 45 41 54 29 18 17 38 50 36 46 44 331 242 239 257 236 208 182 182 117 174 118 118 110 99 102 113 114 110 103 88 84
278 290 314 296 272 264 255 318 212 2 2 340 7 352 359 7 357 348 13 18 24 7 1 359 15 358 23 334 332 262 238 255 267 275 143 95 105 128 121 118 101 85 70 87 107 107 109 103 92
316 303 306 280 152 273 292 268 170 172 148 261 31 292 314 341 344 349 347 11 9 12 20 4 358 8 339 304 306 328 263 260 260 346 119 131 123 119 108 108 120 122 122 118 105 109 99 92 92
263 134 117 292 307 312 291 267 228 179 159 204 249 220 264 246 301 324 334 351 3 357 359 359 356 345 329 325 332 331 288 237 25 105 105 156 168 142 141 123 128 141 138 128 130 108 109 108 91